This demonstration page uses our WeatherBlox Daily Observations layout. Learn more.

38.88101, -77.10428

Hourly Observations for August 21, 2017

Temp ( °F °C ) Dew Point ( °F °C ) Humidity (%) Winds ( mph kmh ) Pressure ( in mb ) Visibility ( mi km ) Precip ( " mm )
12:52 am 00:52 Partly Cloudy 76 24.4 72 22.2 88 88 S 5 7 30.19 1023 10 16.0934 0 0
1:52 am 01:52 Mostly Cloudy 76 24.4 71 21.7 85 85 SSE 5 7 30.19 1022 10 16.0934 0 0
2:52 am 02:52 Mostly Cloudy 76 24.4 72 22.2 88 88 Calm 30.19 1022 10 16.0934 0 0
3:52 am 03:52 Cloudy 76 24.4 72 22.2 88 88 Calm 30.18 1022 10 16.0934 0 0
4:52 am 04:52 Cloudy 76 24.4 72 22.2 88 88 SSW 3 6 30.19 1022 10 16.0934 0 0
5:52 am 05:52 Mostly Cloudy 76 24.4 72 22.2 88 88 ESE 3 6 30.2 1023 10 16.0934 0 0
6:22 am 06:22 Mostly Cloudy 76 24.4 71 21.7 85 85 SE 5 7 30.21 1023 10 16.0934 0 0
6:29 am 06:29 Mostly Cloudy 76 24.4 71 21.7 85 85 SE 6 9 30.21 1023 10 16.0934 0 0
6:52 am 06:52 Mostly Cloudy 75 23.9 71 21.7 88 88 ESE 6 9 30.2 1023 10 16.0934 0 0
7:52 am 07:52 Mostly Cloudy 77 25 72 22.2 85 85 SSE 3 6 30.21 1023 10 16.0934 0 0
8:52 am 08:52 Partly Cloudy 78 25.6 74 23.3 87 87 S 8 13 30.2 1023 10 16.0934 0 0
9:18 am 09:18 Mostly Cloudy 79 26.1 74 23.3 85 85 S 10 17 30.21 1023 10 16.0934 0 0
9:52 am 09:52 Mostly Cloudy 80 26.7 75 23.9 85 85 S 9 15 30.19 1023 10 16.0934 0 0
10:19 am 10:19 Partly Cloudy 81 27.2 76 24.4 85 85 SSE 9 15 30.21 1023 10 16.0934 0 0
10:52 am 10:52 Partly Cloudy 82 27.8 76 24.4 82 82 S 12 19 30.2 1023 10 16.0934 0 0
11:52 am 11:52 Mostly Sunny 85 29.4 77 25 77 77 S 8 13 30.18 1022 10 16.0934 0 0
12:52 pm 12:52 Partly Cloudy 87 30.6 78 25.6 75 75 S 10 17 30.16 1022 10 16.0934 0 0
1:52 pm 13:52 Partly Cloudy 89 31.7 76 24.4 65 65 SSW 10 17 30.15 1021 10 16.0934 0 0
2:52 pm 14:52 Mostly Cloudy 87 30.6 76 24.4 70 70 S 9 15 30.13 1020 10 16.0934 0 0
3:36 pm 15:36 Mostly Cloudy with Light Rain 88 31.1 80 26.7 77 77 S 7 11 30.12 1020 9 14.48406 0.01 0.254
3:52 pm 15:52 Mostly Cloudy 88 31.1 79 26.1 75 75 S 9 15 30.11 1020 10 16.0934 0.01 0.254
4:10 pm 16:10 Partly Cloudy with Nearby Thunderstorms 86 30 77 25 75 75 S 12 19 30.12 1020 10 16.0934 0 0
4:25 pm 16:25 Mostly Cloudy 88 31.1 78 25.6 73 73 S 8 13 30.12 1020 10 16.0934 0 0.0254
4:42 pm 16:42 Partly Cloudy with Nearby Thunderstorms 86 30 76 24.4 72 72 S 22 35 30.12 1020 10 16.0934 0 0.0254
4:52 pm 16:52 Mostly Cloudy with Nearby Thunderstorms 86 30 75 23.9 70 70 S 17 28 30.11 1020 10 16.0934 0 0.0254
4:57 pm 16:57 Mostly Cloudy 85 29.4 75 23.9 72 72 S 15 24 30.12 1020 10 16.0934 0 0
5:52 pm 17:52 Mostly Cloudy 83 28.3 73 22.8 72 72 SW 13 20 30.11 1020 10 16.0934 0 0
6:52 pm 18:52 Mostly Cloudy 80 26.7 74 23.3 82 82 S 13 20 30.12 1020 10 16.0934 0 0
7:52 pm 19:52 Mostly Cloudy with Nearby Thunderstorms 79 26.1 72 22.2 79 79 SSW 8 13 30.13 1020 10 16.0934 0 0
8:15 pm 20:15 Clear 79 26.1 72 22.2 79 79 S 9 15 30.12 1020 10 16.0934 0 0
8:29 pm 20:29 Mostly Cloudy with Nearby Thunderstorms 79 26.1 72 22.2 79 79 S 6 9 30.12 1020 10 16.0934 0 0
8:43 pm 20:43 Mostly Cloudy 79 26.1 72 22.2 79 79 SW 6 9 30.12 1020 10 16.0934 0 0
8:52 pm 20:52 Mostly Cloudy 79 26.1 72 22.2 79 79 SW 6 9 30.12 1020 10 16.0934 0 0
9:52 pm 21:52 Mostly Cloudy 78 25.6 72 22.2 82 82 S 7 11 30.13 1020 10 16.0934 0 0
10:52 pm 22:52 Mostly Cloudy 78 25.6 74 23.3 87 87 S 7 11 30.13 1020 10 16.0934 0 0
11:52 pm 23:52 Mostly Cloudy 77 25 74 23.3 90 90 S 7 11 30.11 1020 10 16.0934 0 0

Powered by AerisWeather